Flight Information

DEPARTURE
INDIAN SPRINGS, NV
Elevation:
3134
Runways:
13/31 - 5476x100 - ASPH
8/26 - 9002x150 - ASPH
Ground:
118.3
Tower:
118.3
DESTINATION
,
Elevation:
TPA:
1000 (est.)


6621.4 NM74° True-15° Var59° HDG

Flight Plan:
(click to file on line)

1. Type
2. Aircraft Identification
3. Aircraft Type / Special Equipment
4. True Airspeed
kts
5. Departure Airport
(ICAO code)
6. Arriving Airport
(ICAO code)
7. Cruising Altitude
ft
8. Alternate Airport
(ICAO code)
9. Route of Flight
10. Remarks


00:00:00 Departure ATIS: Destination ATIS:

Clearance Limit:
Route:
Altitude: Expect in minutes
Frequency:
Transponder: (7500 Hijack / 7600 Lost Comms / 7700 Emergency)


KINS 030756Z AUTO 00000KT 10SM CLR 20/04 A3000 RMK AO2 SLP114 T01980035 403150145 $
Time: 2022-10-03T07:56:00Z
1664785148
Winds: calm
Visibility: 10.0 sm
Clouds (AGL): CLR
Temperature: 19.8 C
Dew Point: 3.5 C
Pressure: 30.0 in Hgbr


Notes:

Data extracted from FAA Digital Chart Supplement. Effective: 0901Z Thursday, 27 JAN 2022 to 0900z Thursday, 24 MAR 2022
Current ATIS data is provided courtisy of PilotEdge.